GSAT0104 (GALILEO-FM4) (38858 NORAD) Tracking and Keplerian Element Data

This shows tracking and keplerian element data for the satellite.

Feedback or suggestion? Click here.




ElementValue
Catalog38858
NameGSAT0104 (GALILEO-FM4)
Epoch Orbit3579
Epoch Day197.37442896
Epoch Year2018
RAAN181.133
Inclination54.9134
Eccentricity0.0004186
Argument of Perigee266.5053
Mean Anonmoly93.4137
Mean Motion1.70473733
Decay Rate4.8E-07
L11 38858U 12055B 18197.37442896 .00000048 00000-0 00000+0 0 9995
L22 38858 54.9134 181.1330 0004186 266.5053 93.4137 1.70473733 35799

Live tracking and technical data element details for GSAT0104 (GALILEO-FM4) (NORAD 38858). GSAT0104 (GALILEO-FM4) can be tracked NOW for your location showing map with azimuth and elevation plus other details from your city location.

Track the satellite on the map from your city or location and see movement details for azimuth, elevation, latitude, longitude, range, height, and movement on the map or in text.







IsCatalogInMostPopularTable: catalog: 38858, numindb: 51
Update: records affected: 1



GetName: 38858 GSAT0104 (GALILEO-FM4)

Hit Count: updated at: Thu, 19 Jul 2018 21:26:30 GMT